Regional Weather Roundup
Issued by NWS

Home | Current Version | Previous Version | Text Only | Print | Product List | Glossary On
Versions: 1 2 3 4 5 6 7 8 9 10 11 12 13 14 15 16 17 18 19 20 21 22 23 24 25 26 27 28 29 30 31 32 33 34 35 36 37 38 39 40 41 42 43 44 45 46 47 48 49 50
000
ASUS45 KABQ 301610
RWRNM
NEW MEXICO REGIONAL WEATHER ROUNDUP
NATIONAL WEATHER SERVICE ALBUQUERQUE NM
1000 AM MDT THU JUL 30 2015

NOTE: "FAIR" MEANS FEW OR NO CLOUDS BELOW 12,000 FEET AGL WITH NO
       SIGNIFICANT WEATHER OR OBSTRUCTIONS TO VISION.

      THIS PRODUCT IS RELEASED AS TWO VERSIONS.  ONE VERSION NEAR
      THE TOP OF THE HOUR CONTAINING PRELIMINARY DATA FROM ALBUQUERQUE
      AND OTHER STATIONS.  A FINAL VERSION WITH ADDITIONAL DATA IS
      ISSUED ABOUT 10 MINUTES AFTER THE HOUR.

NMZ501-503-504-510>518-301700-
NORTHWEST PLATEAU/NORTHCENTRAL MOUNTAINS

CITY           SKY/WX    TMP DP  RH WIND       PRES   REMARKS
FARMINGTON     SUNNY     73  53  49 E6        30.37F
LOS ALAMOS     CLOUDY    59  57  92 CALM      30.52S
SANTA FE       CLOUDY    64  58  80 N6        30.45F
TAOS           CLOUDY    63  48  59 CALM      30.52S
ANGEL FIRE     CLOUDY    58  51  75 CALM      30.58S

$$
NMZ402-403-502-505>509-301700-
WESTCENTRAL MOUNTAINS/SOUTHWEST MOUNTAINS

CITY           SKY/WX    TMP DP  RH WIND       PRES   REMARKS
GALLUP         CLOUDY    65  59  81 E5        30.44R
GRANTS         CLOUDY    63  60  90 SE7       30.48S
SILVER CITY      N/A     68  57  68 E7        30.39S

$$
NMZ407-409-411-412-301700-
SOUTHERN DESERTS

CITY           SKY/WX    TMP DP  RH WIND       PRES   REMARKS
LORDSBURG      FAIR      72  63  73 SE14      30.29S
DEMING         PTSUNNY   73  62  68 E9        30.31S
LAS CRUCES     PTSUNNY   70  63  77 N10       30.31S
ALAMOGORDO     MOSUNNY   73  63  68 W3        30.31F
T OR C         CLOUDY    69  62  78 CALM      30.35F

$$
NMZ519>523-301700-
CENTRAL VALLEYS/CENTRAL HIGHLANDS

CITY           SKY/WX    TMP DP  RH WIND       PRES   REMARKS
ALBUQUERQUE    PTSUNNY   69  61  75 NW5       30.40S
DOUBLE EAGLE   PTSUNNY   66  59  77 N6        30.43S
MORIARTY ARPT    N/A     64  56  74 CALM      30.47R
CLINES CORNERS CLOUDY    60  57  89 SE5       30.48S
BELEN          LGT RAIN  67  64  89 NW3       30.39S
SOCORRO        PTSUNNY   68  62  81 N3        30.36F

$$
NMZ524>526-539-540-301700-
SOUTHCENTRAL MOUNTAINS

CITY           SKY/WX    TMP DP  RH WIND       PRES   REMARKS
RUIDOSO          N/A    N/A N/A N/A MISG        N/A

$$
NMZ527>531-301700-
NORTHEAST HIGHLANDS/NORTHEAST PLAINS

CITY           SKY/WX    TMP DP  RH WIND       PRES   REMARKS
LAS VEGAS      CLOUDY    62  54  74 CALM      30.49F
RATON          PTSUNNY   65  56  72 VRB3      30.45F
CLAYTON        PTSUNNY   71  58  63 W14       30.37F

$$
NMZ532>537-301700-
EASTCENTRAL PLAINS

CITY           SKY/WX    TMP DP  RH WIND       PRES   REMARKS
TUCUMCARI      PTSUNNY   70  63  78 N6        30.31F
CANNON AFB     SUNNY     75  63  66 N9        30.32R
CLOVIS AIRPORT MOSUNNY   77  59  53 N14       30.33R

$$
NMZ028-029-538-301700-
SOUTHEAST PLAINS

CITY           SKY/WX    TMP DP  RH WIND       PRES   REMARKS
ROSWELL        PTSUNNY   77  62  59 N14       30.29S
ARTESIA        MOSUNNY   79  63  57 N15       30.29S
CARLSBAD       SUNNY     81  63  54 NW17      30.25S
HOBBS          SUNNY     82  61  47 NE9       30.28S


$$



USA.gov is the U.S. government's official web portal to all federal, state and local government web resources and services.